DW4779 Weather Reports


time (UTC)temp
F
wind
direction
speed
knots
gust
knots
rain 1hr
in
rain 24hr
in
rain mn
in
humidity
%
barometer
mb
20260504190048 54 190 9.6 19.1 0.00 0.00 0.00 33 1015.0
20260504184543 55 190 9.6 18.2 0.00 0.00 0.00 33 1015.1
20260504183049 56 190 9.6 18.2 0.00 0.00 0.00 32 1015.1
20260504181547 57 190 5.2 14.8 0.00 0.00 0.00 34 1015.2
20260504180047 56 190 6.1 16.5 0.00 0.00 0.00 35 1015.2
20260504174554 55 190 7.8 14.8 0.00 0.00 0.00 37 1015.2
20260504173046 55 190 9.6 18.2 0.00 0.00 0.00 37 1015.2
20260504171553 55 190 12.2 19.1 0.00 0.00 0.00 36 1015.2
20260504081550 50 190 2.6 9.6 0.00 0.00 0.00 50 1015.1
20260504044559 58 190 2.6 10.4 0.00 0.00 0.00 36 1009.3
20260504043055 58 190 1.7 4.3 0.00 0.00 0.00 36 1008.8
20260504041549 59 190 1.7 6.1 0.00 0.00 0.00 34 1008.6
20260504040058 59 190 1.7 5.2 0.00 0.00 0.00 34 1008.1
20260504034609 60 44 1.7 4.3 0.00 0.00 0.00 33 1007.7
20260504033043 61 45 2.6 7.0 0.00 0.00 0.00 32 1007.5
20260504031544 61 44 2.6 6.1 0.00 0.00 0.00 31 1007.2
20260504030048 62 190 1.7 2.6 0.00 0.00 0.00 27 1006.9
20260504024538 63 190 0.9 2.6 0.00 0.00 0.00 23 1006.8
20260504023039 65 190 0.9 2.6 0.00 0.00 0.00 22 1006.7
20260504021550 67 0 0.0 3.5 0.00 0.00 0.00 20 1006.7
20260504020043 69 190 1.7 5.2 0.00 0.00 0.00 19 1006.8
20260504014543 71 190 0.9 3.5 0.00 0.00 0.00 19 1006.7
20260504013049 72 190 1.7 5.2 0.00 0.00 0.00 18 1006.6
20260504011548 73 190 1.7 4.3 0.00 0.00 0.00 18 1006.7
20260504010052 74 190 2.6 7.0 0.00 0.00 0.00 18 1006.7
20260504004546 74 190 1.7 7.8 0.00 0.00 0.00 17 1006.7
20260504003048 75 190 1.7 8.7 0.00 0.00 0.00 17 1006.9
20260504001600 75 190 2.6 12.2 0.00 0.00 0.00 17 1006.9
20260504000039 75 190 7.0 16.5 0.00 0.00 0.00 16 1007.2
20260503234549 75 190 4.3 11.3 0.00 0.00 0.00 16 1007.2
20260503233045 75 190 8.7 14.8 0.00 0.00 0.00 15 1007.3
20260503231548 75 224 6.1 13.9 0.00 0.00 0.00 16 1007.3
20260503230043 75 190 5.2 13.0 0.00 0.00 0.00 17 1007.5
20260503224541 75 190 5.2 14.8 0.00 0.00 0.00 16 1007.7
20260503223048 75 190 8.7 13.9 0.00 0.00 0.00 16 1007.9
20260503221547 75 224 3.5 14.8 0.00 0.00 0.00 16 1008.1
20260503220049 74 190 4.3 14.8 0.00 0.00 0.00 17 1008.3
20260503214547 75 190 7.0 13.9 0.00 0.00 0.00 16 1008.3
20260503213046 75 224 2.6 8.7 0.00 0.00 0.00 16 1008.6
20260503211548 74 199 5.2 13.0 0.00 0.00 0.00 16 1008.9
20260503210039 74 224 0.9 13.9 0.00 0.00 0.00 16 1009.0
20260503204555 74 190 5.2 12.2 0.00 0.00 0.00 16 1009.2
20260503203049 74 224 1.7 10.4 0.00 0.00 0.00 16 1009.4
20260503201547 74 224 4.3 14.8 0.00 0.00 0.00 16 1009.6
20260503200042 74 224 1.7 11.3 0.00 0.00 0.00 15 1009.7
20260503194545 74 224 2.6 13.9 0.00 0.00 0.00 16 1009.9
20260503193049 74 190 3.5 10.4 0.00 0.00 0.00 16 1010.0
20260503191538 73 224 2.6 11.3 0.00 0.00 0.00 18 1010.3